Time,TemperatureF,DewpointF,PressureIn,WindDirection,WindDirectionDegrees,WindSpeedMPH,WindSpeedGustMPH,Humidity,HourlyPrecipIn,Conditions,Clouds,dailyrainin,SoftwareType,DateUTC
2013-05-17 00:01:00,66.4,61.1,29.99,WSW,244,0.0,0.0,83,0.00,CLR,,0.00,WeatherDisplay:10.37,2013-05-17 04:01:00,
2013-05-17 00:06:00,66.3,61.0,29.99,WSW,244,0.0,0.0,83,0.00,CLR,,0.00,WeatherDisplay:10.37,2013-05-17 04:06:00,
2013-05-17 00:11:00,66.4,61.1,29.99,WSW,244,0.0,0.0,83,0.00,CLR,,0.00,WeatherDisplay:10.37,2013-05-17 04:11:00,
2013-05-17 00:16:00,66.3,61.0,29.99,WSW,244,0.0,0.0,83,0.00,CLR,,0.00,WeatherDisplay:10.37,2013-05-17 04:16:00,
2013-05-17 00:21:00,66.3,61.0,29.99,WSW,244,0.0,0.0,83,0.00,CLR,,0.00,WeatherDisplay:10.37,2013-05-17 04:21:00,
2013-05-17 00:26:00,66.7,61.7,29.99,WSW,244,3.5,3.5,84,0.00,CLR,,0.00,WeatherDisplay:10.37,2013-05-17 04:26:00,
2013-05-17 00:31:00,66.7,61.7,29.99,WSW,244,4.0,4.0,84,0.00,CLR,,0.00,WeatherDisplay:10.37,2013-05-17 04:31:00,
2013-05-17 00:36:00,66.3,61.0,29.99,WSW,244,0.0,0.0,83,0.00,CLR,,0.00,WeatherDisplay:10.37,2013-05-17 04:36:00,
2013-05-17 00:41:00,66.9,61.9,29.99,WSW,244,1.0,0.0,84,0.00,CLR,,0.00,WeatherDisplay:10.37,2013-05-17 04:41:00,
2013-05-17 00:46:00,67.0,62.0,29.99,WSW,244,3.0,3.0,84,0.00,CLR,,0.00,WeatherDisplay:10.37,2013-05-17 04:46:00,
2013-05-17 00:51:00,66.8,61.8,29.99,WSW,244,0.0,0.8,84,0.00,CLR,,0.00,WeatherDisplay:10.37,2013-05-17 04:51:00,
2013-05-17 00:56:00,67.1,62.1,29.99,WSW,244,0.0,0.0,84,0.00,CLR,,0.00,WeatherDisplay:10.37,2013-05-17 04:56:00,
2013-05-17 01:01:00,67.2,62.5,29.99,WSW,244,1.2,1.2,85,0.00,CLR,,0.00,WeatherDisplay:10.37,2013-05-17 05:01:00,
2013-05-17 01:06:00,67.2,62.2,29.98,WSW,244,0.0,0.0,84,0.00,CLR,,0.00,WeatherDisplay:10.37,2013-05-17 05:06:00,
2013-05-17 01:11:00,67.2,62.2,29.98,WSW,244,0.0,0.0,84,0.00,CLR,,0.00,WeatherDisplay:10.37,2013-05-17 05:11:00,
2013-05-17 01:16:00,67.2,62.2,29.99,WSW,244,0.0,0.0,84,0.00,CLR,,0.00,WeatherDisplay:10.37,2013-05-17 05:16:00,
2013-05-17 01:21:00,67.2,62.2,29.98,WSW,244,0.0,0.0,84,0.00,CLR,,0.00,WeatherDisplay:10.37,2013-05-17 05:21:00,
2013-05-17 01:26:00,67.1,62.4,29.98,WSW,244,3.5,3.5,85,0.00,CLR,,0.00,WeatherDisplay:10.37,2013-05-17 05:26:00,
2013-05-17 01:31:00,67.1,62.4,29.98,WSW,244,2.3,2.3,85,0.00,CLR,,0.00,WeatherDisplay:10.37,2013-05-17 05:31:00,
2013-05-17 01:36:00,67.0,62.3,29.98,WSW,244,0.0,0.0,85,0.00,CLR,,0.00,WeatherDisplay:10.37,2013-05-17 05:36:00,
2013-05-17 01:41:00,67.0,62.3,29.98,WSW,244,0.0,0.0,85,0.00,CLR,,0.00,WeatherDisplay:10.37,2013-05-17 05:41:00,
2013-05-17 01:46:00,66.9,62.2,29.98,WSW,244,0.0,0.0,85,0.00,CLR,,0.00,WeatherDisplay:10.37,2013-05-17 05:46:00,
2013-05-17 01:51:00,66.9,62.2,29.98,WSW,244,0.0,0.0,85,0.00,CLR,,0.00,WeatherDisplay:10.37,2013-05-17 05:51:00,
2013-05-17 01:56:00,66.8,62.1,29.98,WSW,244,0.0,0.0,85,0.00,CLR,,0.00,WeatherDisplay:10.37,2013-05-17 05:56:00,
2013-05-17 02:01:00,66.7,62.4,29.98,WSW,244,0.0,0.0,86,0.00,CLR,,0.00,WeatherDisplay:10.37,2013-05-17 06:01:00,
2013-05-17 02:06:00,66.7,62.4,29.98,WSW,244,0.0,0.0,86,0.00,CLR,,0.00,WeatherDisplay:10.37,2013-05-17 06:06:00,
2013-05-17 02:11:00,66.6,62.3,29.98,WSW,244,3.0,0.0,86,0.00,CLR,,0.00,WeatherDisplay:10.37,2013-05-17 06:11:00,
2013-05-17 02:16:00,66.6,62.6,29.98,WSW,244,3.5,3.5,87,0.00,CLR,,0.00,WeatherDisplay:10.37,2013-05-17 06:16:00,
2013-05-17 02:21:00,66.6,62.6,29.98,WSW,244,0.0,0.0,87,0.00,CLR,,0.00,WeatherDisplay:10.37,2013-05-17 06:21:00,
2013-05-17 02:26:00,66.6,62.6,29.98,WSW,244,3.5,3.5,87,0.00,CLR,,0.00,WeatherDisplay:10.37,2013-05-17 06:26:00,
2013-05-17 02:31:00,66.5,62.2,29.98,WSW,244,1.2,0.0,86,0.00,CLR,,0.00,WeatherDisplay:10.37,2013-05-17 06:31:00,
2013-05-17 02:36:00,66.6,62.6,29.98,WSW,244,0.0,0.0,87,0.00,CLR,,0.00,WeatherDisplay:10.37,2013-05-17 06:36:00,
2013-05-17 02:41:00,66.5,62.5,29.98,WSW,244,3.0,3.0,87,0.00,CLR,,0.00,WeatherDisplay:10.37,2013-05-17 06:41:00,
2013-05-17 02:46:00,66.4,62.4,29.98,WSW,244,5.0,5.0,87,0.00,CLR,,0.00,WeatherDisplay:10.37,2013-05-17 06:46:00,
2013-05-17 02:51:00,66.6,62.6,29.98,WSW,244,0.0,0.0,87,0.00,CLR,,0.00,WeatherDisplay:10.37,2013-05-17 06:51:00,
2013-05-17 02:56:00,66.3,62.3,29.98,WSW,244,3.5,3.5,87,0.00,CLR,,0.00,WeatherDisplay:10.37,2013-05-17 06:56:00,
2013-05-17 03:01:00,66.6,62.6,29.98,WSW,244,0.0,0.0,87,0.00,CLR,,0.00,WeatherDisplay:10.37,2013-05-17 07:01:00,
2013-05-17 03:06:00,66.1,61.8,29.98,WSW,244,0.0,0.0,86,0.00,CLR,,0.00,WeatherDisplay:10.37,2013-05-17 07:06:00,
2013-05-17 03:11:00,66.6,62.6,29.98,WSW,244,0.0,0.0,87,0.00,CLR,,0.00,WeatherDisplay:10.37,2013-05-17 07:11:00,
2013-05-17 03:16:00,65.6,61.0,29.99,WSW,244,0.0,0.0,85,0.00,CLR,,0.00,WeatherDisplay:10.37,2013-05-17 07:16:00,
2013-05-17 03:21:00,65.3,60.7,29.99,WSW,244,0.0,0.0,85,0.00,CLR,,0.00,WeatherDisplay:10.37,2013-05-17 07:21:00,
2013-05-17 03:26:00,66.6,62.6,29.98,WSW,244,0.0,0.0,87,0.00,CLR,,0.00,WeatherDisplay:10.37,2013-05-17 07:26:00,
2013-05-17 03:31:00,66.6,62.6,29.98,WSW,244,0.0,0.0,87,0.00,CLR,,0.00,WeatherDisplay:10.37,2013-05-17 07:31:00,
2013-05-17 03:36:00,66.6,62.6,29.98,WSW,244,0.0,0.0,87,0.00,CLR,,0.00,WeatherDisplay:10.37,2013-05-17 07:36:00,
2013-05-17 03:41:00,66.6,62.6,29.98,WSW,244,0.0,0.0,87,0.00,CLR,,0.00,WeatherDisplay:10.37,2013-05-17 07:41:00,
2013-05-17 03:46:00,66.6,62.6,29.98,WSW,244,0.0,0.0,87,0.00,CLR,,0.00,WeatherDisplay:10.37,2013-05-17 07:46:00,
2013-05-17 03:51:00,63.9,60.3,30.00,WSW,244,0.0,0.0,88,0.00,CLR,,0.00,WeatherDisplay:10.37,2013-05-17 07:51:00,
2013-05-17 03:56:00,66.6,62.6,29.98,WSW,244,0.0,0.0,87,0.00,CLR,,0.00,WeatherDisplay:10.37,2013-05-17 07:56:00,
2013-05-17 04:01:00,66.6,62.6,29.98,WSW,244,0.0,0.0,87,0.00,CLR,,0.00,WeatherDisplay:10.37,2013-05-17 08:01:00,
2013-05-17 04:06:00,66.6,62.6,29.98,WSW,244,0.0,0.0,87,0.00,CLR,,0.00,WeatherDisplay:10.37,2013-05-17 08:06:00,
2013-05-17 04:11:00,63.0,59.7,30.00,WSW,244,0.0,0.0,89,0.00,CLR,,0.00,WeatherDisplay:10.37,2013-05-17 08:11:00,
2013-05-17 04:16:00,62.8,59.8,30.00,WSW,244,0.0,0.0,90,0.00,CLR,,0.00,WeatherDisplay:10.37,2013-05-17 08:16:00,
2013-05-17 04:21:00,63.1,59.8,30.00,WSW,244,0.0,0.0,89,0.00,CLR,,0.00,WeatherDisplay:10.37,2013-05-17 08:21:00,
2013-05-17 04:26:00,62.6,59.6,30.00,WSW,244,0.0,0.0,90,0.00,CLR,,0.00,WeatherDisplay:10.37,2013-05-17 08:26:00,
2013-05-17 04:31:00,63.1,59.8,30.00,WSW,244,0.0,0.0,89,0.00,CLR,,0.00,WeatherDisplay:10.37,2013-05-17 08:31:00,
2013-05-17 04:36:00,62.5,59.8,30.00,WSW,244,0.0,0.0,91,0.00,CLR,,0.00,WeatherDisplay:10.37,2013-05-17 08:36:00,
2013-05-17 04:41:00,63.1,59.8,30.00,WSW,244,0.0,0.0,89,0.00,CLR,,0.00,WeatherDisplay:10.37,2013-05-17 08:41:00,
2013-05-17 04:46:00,63.1,59.8,30.00,WSW,244,0.0,0.0,89,0.00,CLR,,0.00,WeatherDisplay:10.37,2013-05-17 08:46:00,
2013-05-17 04:51:00,62.4,60.0,30.00,WSW,244,0.0,0.0,92,0.00,CLR,,0.00,WeatherDisplay:10.37,2013-05-17 08:51:00,
2013-05-17 04:56:00,62.4,60.0,30.00,WSW,244,0.0,0.0,92,0.00,CLR,,0.00,WeatherDisplay:10.37,2013-05-17 08:56:00,
2013-05-17 05:01:00,62.4,60.0,30.00,WSW,244,0.0,0.0,92,0.00,CLR,,0.00,WeatherDisplay:10.37,2013-05-17 09:01:00,
2013-05-17 05:06:00,62.4,60.0,30.00,WSW,244,0.0,0.0,92,0.00,CLR,,0.00,WeatherDisplay:10.37,2013-05-17 09:06:00,
2013-05-17 05:11:00,62.2,59.8,30.00,WSW,244,0.0,0.0,92,0.00,CLR,,0.00,WeatherDisplay:10.37,2013-05-17 09:11:00,
2013-05-17 05:16:00,62.4,60.0,30.00,WSW,244,0.0,0.0,92,0.00,CLR,,0.00,WeatherDisplay:10.37,2013-05-17 09:16:00,
2013-05-17 05:21:00,62.4,60.0,30.00,WSW,244,0.0,0.0,92,0.00,CLR,,0.00,WeatherDisplay:10.37,2013-05-17 09:21:00,
2013-05-17 05:26:00,62.1,59.7,30.00,WSW,244,0.0,0.0,92,0.00,CLR,,0.00,WeatherDisplay:10.37,2013-05-17 09:26:00,
2013-05-17 05:31:00,62.0,59.6,30.00,WSW,244,0.0,0.0,92,0.00,CLR,,0.00,WeatherDisplay:10.37,2013-05-17 09:31:00,
2013-05-17 05:36:00,61.9,59.5,30.00,WSW,244,0.0,0.0,92,0.00,CLR,,0.00,WeatherDisplay:10.37,2013-05-17 09:36:00,
2013-05-17 05:41:00,62.4,60.0,30.00,WSW,244,0.0,0.0,92,0.00,CLR,,0.00,WeatherDisplay:10.37,2013-05-17 09:41:00,
2013-05-17 05:46:00,61.6,59.3,30.01,WSW,244,0.0,0.0,92,0.00,CLR,,0.00,WeatherDisplay:10.37,2013-05-17 09:46:00,
2013-05-17 05:51:00,62.4,60.0,30.00,WSW,244,0.0,0.0,92,0.00,CLR,,0.00,WeatherDisplay:10.37,2013-05-17 09:51:00,
2013-05-17 05:56:00,62.4,60.0,30.00,WSW,244,0.0,0.0,92,0.00,CLR,,0.00,WeatherDisplay:10.37,2013-05-17 09:56:00,
2013-05-17 06:01:00,62.4,60.0,30.00,WSW,244,0.0,0.0,92,0.00,CLR,,0.00,WeatherDisplay:10.37,2013-05-17 10:01:00,
2013-05-17 06:06:00,62.4,60.0,30.00,WSW,244,0.0,0.0,92,0.00,CLR,,0.00,WeatherDisplay:10.37,2013-05-17 10:06:00,
2013-05-17 06:11:00,60.6,58.3,30.02,WSW,244,0.0,0.0,92,0.00,CLR,,0.00,WeatherDisplay:10.37,2013-05-17 10:11:00,
2013-05-17 06:16:00,60.4,58.1,30.02,WSW,244,0.0,0.0,92,0.00,CLR,,0.00,WeatherDisplay:10.37,2013-05-17 10:16:00,
2013-05-17 06:21:00,60.3,58.0,30.02,WSW,244,0.0,0.0,92,0.00,CLR,,0.00,WeatherDisplay:10.37,2013-05-17 10:21:00,
2013-05-17 06:26:00,60.2,57.9,30.03,WSW,244,0.0,0.0,92,0.00,CLR,,0.00,WeatherDisplay:10.37,2013-05-17 10:26:00,
2013-05-17 06:31:00,60.4,58.1,30.02,WSW,244,0.0,0.0,92,0.00,CLR,,0.00,WeatherDisplay:10.37,2013-05-17 10:31:00,
2013-05-17 06:36:00,60.4,58.1,30.02,WSW,244,0.0,0.0,92,0.00,CLR,,0.00,WeatherDisplay:10.37,2013-05-17 10:36:00,
2013-05-17 06:41:00,60.0,58.0,30.03,WSW,244,0.0,0.0,93,0.00,CLR,,0.00,WeatherDisplay:10.37,2013-05-17 10:41:00,
2013-05-17 06:46:00,60.4,58.1,30.02,WSW,244,0.0,0.0,92,0.00,CLR,,0.00,WeatherDisplay:10.37,2013-05-17 10:46:00,
2013-05-17 06:51:00,60.4,58.1,30.02,WSW,244,0.0,0.0,92,0.00,CLR,,0.00,WeatherDisplay:10.37,2013-05-17 10:51:00,
2013-05-17 06:56:00,60.4,58.1,30.02,WSW,244,0.0,0.0,92,0.00,CLR,,0.00,WeatherDisplay:10.37,2013-05-17 10:56:00,
2013-05-17 07:01:00,60.2,58.2,30.04,WSW,244,0.0,0.0,93,0.00,CLR,,0.00,WeatherDisplay:10.37,2013-05-17 11:01:00,
2013-05-17 07:06:00,60.1,58.1,30.04,WSW,244,0.0,0.0,93,0.00,CLR,,0.00,WeatherDisplay:10.37,2013-05-17 11:06:00,
2013-05-17 07:11:00,60.4,58.7,30.04,WSW,244,0.0,0.0,94,0.00,CLR,,0.00,WeatherDisplay:10.37,2013-05-17 11:11:00,
2013-05-17 07:16:00,60.5,58.8,30.04,WSW,244,0.0,0.0,94,0.00,CLR,,0.00,WeatherDisplay:10.37,2013-05-17 11:16:00,
2013-05-17 07:21:00,60.6,58.9,30.04,WSW,244,0.0,0.0,94,0.00,CLR,,0.00,WeatherDisplay:10.37,2013-05-17 11:21:00,
2013-05-17 07:26:00,60.7,59.0,30.04,WSW,244,1.2,1.2,94,0.00,CLR,,0.00,WeatherDisplay:10.37,2013-05-17 11:26:00,
2013-05-17 07:31:00,60.7,59.0,30.05,WSW,244,2.3,2.3,94,0.00,CLR,,0.00,WeatherDisplay:10.37,2013-05-17 11:31:00,
2013-05-17 07:36:00,60.1,58.1,30.04,WSW,244,0.0,0.0,93,0.00,CLR,,0.00,WeatherDisplay:10.37,2013-05-17 11:36:00,
2013-05-17 07:41:00,60.7,59.0,30.05,WSW,244,0.0,0.0,94,0.00,CLR,,0.00,WeatherDisplay:10.37,2013-05-17 11:41:00,
2013-05-17 07:46:00,60.7,59.0,30.05,WSW,244,0.0,0.0,94,0.00,CLR,,0.00,WeatherDisplay:10.37,2013-05-17 11:46:00,
2013-05-17 07:51:00,60.7,59.0,30.05,WSW,244,0.0,0.0,94,0.00,CLR,,0.00,WeatherDisplay:10.37,2013-05-17 11:51:00,
2013-05-17 07:56:00,60.7,59.0,30.05,WSW,244,0.0,0.0,94,0.00,CLR,,0.00,WeatherDisplay:10.37,2013-05-17 11:56:00,
2013-05-17 08:01:00,62.1,60.4,30.05,WSW,244,0.0,0.0,94,0.00,CLR,,0.00,WeatherDisplay:10.37,2013-05-17 12:01:00,
2013-05-17 08:06:00,62.2,60.5,30.05,WSW,244,0.0,0.0,94,0.00,CLR,,0.00,WeatherDisplay:10.37,2013-05-17 12:06:00,
2013-05-17 08:11:00,62.2,60.5,30.05,WSW,244,0.0,0.0,94,0.00,CLR,,0.00,WeatherDisplay:10.37,2013-05-17 12:11:00,
2013-05-17 08:16:00,62.2,60.5,30.05,WSW,244,0.0,0.0,94,0.00,CLR,,0.00,WeatherDisplay:10.37,2013-05-17 12:16:00,
2013-05-17 08:21:00,63.4,61.0,30.05,WSW,244,0.0,0.0,92,0.00,CLR,,0.00,WeatherDisplay:10.37,2013-05-17 12:21:00,
2013-05-17 08:26:00,64.0,61.3,30.05,WSW,244,0.0,0.0,91,0.00,CLR,,0.00,WeatherDisplay:10.37,2013-05-17 12:26:00,
2013-05-17 08:31:00,64.8,61.5,30.05,WSW,244,0.0,0.0,89,0.00,CLR,,0.00,WeatherDisplay:10.37,2013-05-17 12:31:00,
2013-05-17 08:36:00,65.5,61.5,30.05,WSW,244,0.0,0.0,87,0.00,CLR,,0.00,WeatherDisplay:10.37,2013-05-17 12:36:00,
2013-05-17 08:41:00,63.4,61.0,30.05,WSW,244,0.0,0.0,92,0.00,CLR,,0.00,WeatherDisplay:10.37,2013-05-17 12:41:00,
2013-05-17 08:46:00,63.4,61.0,30.05,WSW,244,0.0,0.0,92,0.00,CLR,,0.00,WeatherDisplay:10.37,2013-05-17 12:46:00,
2013-05-17 08:51:00,67.6,61.9,30.06,WSW,244,0.0,0.0,82,0.00,CLR,,0.00,WeatherDisplay:10.37,2013-05-17 12:51:00,
2013-05-17 08:56:00,68.2,62.1,30.06,WSW,244,0.0,0.0,81,0.00,CLR,,0.00,WeatherDisplay:10.37,2013-05-17 12:56:00,
2013-05-17 09:01:00,63.4,61.0,30.05,WSW,244,0.0,0.0,92,0.00,CLR,,0.00,WeatherDisplay:10.37,2013-05-17 13:01:00,
2013-05-17 09:06:00,63.4,61.0,30.05,WSW,244,0.0,0.0,92,0.00,CLR,,0.00,WeatherDisplay:10.37,2013-05-17 13:06:00,
2013-05-17 09:11:00,70.3,62.4,30.06,NNE,21,0.0,0.0,76,0.00,CLR,,0.00,WeatherDisplay:10.37,2013-05-17 13:11:00,
2013-05-17 09:16:00,70.7,62.8,30.06,NNE,21,3.0,3.0,76,0.00,CLR,,0.00,WeatherDisplay:10.37,2013-05-17 13:16:00,
2013-05-17 09:21:00,71.1,62.8,30.06,NNE,21,0.0,0.0,75,0.00,CLR,,0.00,WeatherDisplay:10.37,2013-05-17 13:21:00,
2013-05-17 09:26:00,71.5,63.2,30.06,NNE,21,0.0,0.1,75,0.00,CLR,,0.00,WeatherDisplay:10.37,2013-05-17 13:26:00,
2013-05-17 09:31:00,71.0,63.1,30.06,NNE,21,0.0,0.0,76,0.00,CLR,,0.00,WeatherDisplay:10.37,2013-05-17 13:31:00,
2013-05-17 09:36:00,71.0,63.1,30.06,NNE,21,0.0,0.0,76,0.00,CLR,,0.00,WeatherDisplay:10.37,2013-05-17 13:36:00,
2013-05-17 09:41:00,72.6,63.4,30.07,ESE,111,0.0,0.0,73,0.00,CLR,,0.00,WeatherDisplay:10.37,2013-05-17 13:41:00,
2013-05-17 09:46:00,73.0,63.8,30.07,ESE,110,0.0,0.0,73,0.00,CLR,,0.00,WeatherDisplay:10.37,2013-05-17 13:46:00,
2013-05-17 09:51:00,73.6,64.4,30.07,ESE,109,0.0,0.0,73,0.00,CLR,,0.00,WeatherDisplay:10.37,2013-05-17 13:51:00,
2013-05-17 09:56:00,74.2,64.6,30.07,ESE,109,0.0,0.0,72,0.00,CLR,,0.00,WeatherDisplay:10.37,2013-05-17 13:56:00,
2013-05-17 10:01:00,74.8,63.9,30.07,NE,55,3.5,3.5,69,0.00,CLR,,0.00,WeatherDisplay:10.37,2013-05-17 14:01:00,
2013-05-17 10:06:00,75.2,64.7,30.07,NE,55,0.0,0.0,70,0.00,CLR,,0.00,WeatherDisplay:10.37,2013-05-17 14:06:00,
2013-05-17 10:11:00,75.6,63.4,30.07,East,101,3.5,3.5,66,0.00,CLR,,0.00,WeatherDisplay:10.37,2013-05-17 14:11:00,
2013-05-17 10:16:00,75.9,62.8,30.07,ESE,104,0.0,0.0,64,0.00,CLR,,0.00,WeatherDisplay:10.37,2013-05-17 14:16:00,
2013-05-17 10:21:00,75.9,63.3,30.07,ENE,61,3.0,3.0,65,0.00,CLR,,0.00,WeatherDisplay:10.37,2013-05-17 14:21:00,
2013-05-17 10:26:00,75.8,63.6,30.07,ENE,76,1.2,0.0,66,0.00,CLR,,0.00,WeatherDisplay:10.37,2013-05-17 14:26:00,
2013-05-17 10:31:00,74.1,65.3,30.06,ESE,109,1.2,1.2,74,0.00,CLR,,0.00,WeatherDisplay:10.37,2013-05-17 14:31:00,
2013-05-17 10:36:00,76.5,63.9,30.07,SE,138,0.0,0.0,65,0.00,CLR,,0.00,WeatherDisplay:10.37,2013-05-17 14:36:00,
2013-05-17 10:41:00,77.1,64.0,30.07,NE,47,2.0,2.0,64,0.00,CLR,,0.00,WeatherDisplay:10.37,2013-05-17 14:41:00,
2013-05-17 10:46:00,76.2,64.9,30.07,NNE,14,0.0,0.7,68,0.00,CLR,,0.00,WeatherDisplay:10.37,2013-05-17 14:46:00,
2013-05-17 10:51:00,77.1,63.5,30.07,NE,55,3.5,3.5,63,0.00,CLR,,0.00,WeatherDisplay:10.37,2013-05-17 14:51:00,
2013-05-17 10:56:00,77.4,64.7,30.07,ENE,57,0.0,0.1,65,0.00,CLR,,0.00,WeatherDisplay:10.37,2013-05-17 14:56:00,
2013-05-17 11:01:00,77.1,63.5,30.07,NE,55,3.5,3.5,63,0.00,CLR,,0.00,WeatherDisplay:10.37,2013-05-17 15:01:00,
2013-05-17 11:06:00,77.1,63.5,30.07,NE,55,3.5,3.5,63,0.00,CLR,,0.00,WeatherDisplay:10.37,2013-05-17 15:06:00,
2013-05-17 11:11:00,78.5,65.8,30.07,South,178,0.0,0.1,65,0.00,CLR,,0.00,WeatherDisplay:10.37,2013-05-17 15:11:00,
2013-05-17 11:16:00,78.8,64.7,30.07,South,173,3.5,3.5,62,0.00,CLR,,0.00,WeatherDisplay:10.37,2013-05-17 15:16:00,
2013-05-17 11:21:00,79.2,63.1,30.07,ESE,105,0.0,0.0,58,0.00,CLR,,0.00,WeatherDisplay:10.37,2013-05-17 15:21:00,
2013-05-17 11:26:00,79.5,62.9,30.07,ENE,78,4.6,4.6,57,0.00,CLR,,0.00,WeatherDisplay:10.37,2013-05-17 15:26:00,
2013-05-17 11:31:00,79.0,65.8,30.07,ESE,107,0.0,0.0,64,0.00,CLR,,0.00,WeatherDisplay:10.37,2013-05-17 15:31:00,
2013-05-17 11:36:00,79.5,66.3,30.07,ESE,105,0.0,0.0,64,0.00,CLR,,0.00,WeatherDisplay:10.37,2013-05-17 15:36:00,
2013-05-17 11:41:00,79.0,65.8,30.07,ESE,107,0.0,0.0,64,0.00,CLR,,0.00,WeatherDisplay:10.37,2013-05-17 15:41:00,
2013-05-17 11:46:00,80.7,66.5,30.07,ESE,107,0.0,0.0,62,0.00,CLR,,0.00,WeatherDisplay:10.37,2013-05-17 15:46:00,
2013-05-17 11:51:00,81.0,64.8,30.06,East,84,0.0,0.0,58,0.00,CLR,,0.00,WeatherDisplay:10.37,2013-05-17 15:51:00,
2013-05-17 11:56:00,81.0,64.3,30.06,East,95,3.5,3.5,57,0.00,CLR,,0.00,WeatherDisplay:10.37,2013-05-17 15:56:00,
2013-05-17 12:01:00,81.0,64.3,30.06,East,94,0.0,0.0,57,0.00,CLR,,0.00,WeatherDisplay:10.37,2013-05-17 16:01:00,
2013-05-17 12:06:00,81.1,63.4,30.06,ENE,69,4.0,4.0,55,0.00,CLR,,0.00,WeatherDisplay:10.37,2013-05-17 16:06:00,
2013-05-17 12:11:00,80.6,62.9,30.06,NNE,29,0.0,0.0,55,0.00,CLR,,0.00,WeatherDisplay:10.37,2013-05-17 16:11:00,
2013-05-17 12:16:00,80.7,63.0,30.06,ENE,61,0.0,3.0,55,0.00,CLR,,0.00,WeatherDisplay:10.37,2013-05-17 16:16:00,
2013-05-17 12:21:00,81.1,64.4,30.06,SSW,195,1.2,0.0,57,0.00,CLR,,0.00,WeatherDisplay:10.37,2013-05-17 16:21:00,
2013-05-17 12:26:00,81.5,64.8,30.06,SSW,195,3.5,4.5,57,0.00,CLR,,0.00,WeatherDisplay:10.37,2013-05-17 16:26:00,
2013-05-17 12:31:00,81.9,64.1,30.06,East,94,0.0,0.0,55,0.00,CLR,,0.00,WeatherDisplay:10.37,2013-05-17 16:31:00,
2013-05-17 12:36:00,81.9,64.1,30.06,ENE,69,3.5,3.5,55,0.00,CLR,,0.00,WeatherDisplay:10.37,2013-05-17 16:36:00,
2013-05-17 12:41:00,81.5,64.8,30.06,SSW,195,3.5,4.5,57,0.00,CLR,,0.00,WeatherDisplay:10.37,2013-05-17 16:41:00,
2013-05-17 12:46:00,81.5,64.8,30.06,SSW,195,3.5,4.5,57,0.00,CLR,,0.00,WeatherDisplay:10.37,2013-05-17 16:46:00,
2013-05-17 12:51:00,81.5,64.8,30.06,SSW,195,3.5,4.5,57,0.00,CLR,,0.00,WeatherDisplay:10.37,2013-05-17 16:51:00,
2013-05-17 12:56:00,82.1,64.8,30.05,ENE,57,5.8,5.8,56,0.00,CLR,,0.00,WeatherDisplay:10.37,2013-05-17 16:56:00,
2013-05-17 13:01:00,81.5,64.8,30.06,SSW,195,3.5,4.5,57,0.00,CLR,,0.00,WeatherDisplay:10.37,2013-05-17 17:01:00,
2013-05-17 13:06:00,81.5,64.8,30.06,SSW,195,3.5,4.5,57,0.00,CLR,,0.00,WeatherDisplay:10.37,2013-05-17 17:06:00,
2013-05-17 13:11:00,81.5,64.3,30.05,SSW,199,3.5,3.5,56,0.00,CLR,,0.00,WeatherDisplay:10.37,2013-05-17 17:11:00,
2013-05-17 13:16:00,82.1,62.2,30.05,South,190,6.9,6.9,51,0.00,CLR,,0.00,WeatherDisplay:10.37,2013-05-17 17:16:00,
2013-05-17 13:21:00,82.6,65.3,30.05,SSE,156,6.0,6.0,56,0.00,CLR,,0.00,WeatherDisplay:10.37,2013-05-17 17:21:00,
2013-05-17 13:26:00,83.0,65.7,30.05,SE,133,5.0,5.0,56,0.00,CLR,,0.00,WeatherDisplay:10.37,2013-05-17 17:26:00,
2013-05-17 13:31:00,83.3,63.8,30.04,SSE,157,0.0,0.0,52,0.00,CLR,,0.00,WeatherDisplay:10.37,2013-05-17 17:31:00,
2013-05-17 13:36:00,83.0,64.6,30.04,NE,52,4.6,4.6,54,0.00,CLR,,0.00,WeatherDisplay:10.37,2013-05-17 17:36:00,
2013-05-17 13:41:00,82.9,64.5,30.04,SSW,213,0.0,0.0,54,0.00,CLR,,0.00,WeatherDisplay:10.37,2013-05-17 17:41:00,
2013-05-17 13:46:00,83.1,62.5,30.04,ESE,119,3.5,3.5,50,0.00,CLR,,0.00,WeatherDisplay:10.37,2013-05-17 17:46:00,
2013-05-17 13:51:00,83.1,64.2,30.04,SE,141,0.0,0.0,53,0.00,CLR,,0.00,WeatherDisplay:10.37,2013-05-17 17:51:00,
2013-05-17 13:56:00,83.2,64.3,30.04,ESE,111,0.0,0.0,53,0.00,CLR,,0.00,WeatherDisplay:10.37,2013-05-17 17:56:00,
2013-05-17 14:01:00,83.5,66.2,30.04,NE,44,0.0,0.0,56,0.00,CLR,,0.00,WeatherDisplay:10.37,2013-05-17 18:01:00,
2013-05-17 14:06:00,83.8,64.3,30.04,SSW,192,3.5,3.5,52,0.00,CLR,,0.00,WeatherDisplay:10.37,2013-05-17 18:06:00,
2013-05-17 14:11:00,84.0,63.9,30.04,SE,145,4.6,4.6,51,0.00,CLR,,0.00,WeatherDisplay:10.37,2013-05-17 18:11:00,
2013-05-17 14:16:00,81.5,63.3,30.05,NE,34,0.0,2.5,54,0.00,CLR,,0.00,WeatherDisplay:10.37,2013-05-17 18:16:00,
2013-05-17 14:21:00,84.1,64.6,30.03,NE,56,4.6,4.6,52,0.00,CLR,,0.00,WeatherDisplay:10.37,2013-05-17 18:21:00,
2013-05-17 14:26:00,81.5,63.3,30.05,NE,34,0.0,2.5,54,0.00,CLR,,0.00,WeatherDisplay:10.37,2013-05-17 18:26:00,
2013-05-17 14:31:00,84.5,63.8,30.04,SE,130,0.0,0.0,50,0.00,CLR,,0.00,WeatherDisplay:10.37,2013-05-17 18:31:00,
2013-05-17 14:36:00,84.7,64.0,30.04,ESE,104,3.5,3.5,50,0.00,CLR,,0.00,WeatherDisplay:10.37,2013-05-17 18:36:00,
2013-05-17 14:41:00,81.5,63.3,30.05,NE,34,0.0,2.5,54,0.00,CLR,,0.00,WeatherDisplay:10.37,2013-05-17 18:41:00,
2013-05-17 14:46:00,84.7,64.0,30.04,NNW,330,0.0,0.0,50,0.00,CLR,,0.00,WeatherDisplay:10.37,2013-05-17 18:46:00,
2013-05-17 14:51:00,85.0,63.7,30.03,SSW,206,0.0,0.0,49,0.00,CLR,,0.00,WeatherDisplay:10.37,2013-05-17 18:51:00,
2013-05-17 14:56:00,81.5,63.3,30.05,NE,34,0.0,2.5,54,0.00,CLR,,0.00,WeatherDisplay:10.37,2013-05-17 18:56:00,
2013-05-17 15:01:00,81.5,63.3,30.05,NE,34,0.0,2.5,54,0.00,CLR,,0.00,WeatherDisplay:10.37,2013-05-17 19:01:00,
2013-05-17 15:06:00,85.1,66.0,30.03,ENE,71,1.2,1.2,53,0.00,CLR,,0.00,WeatherDisplay:10.37,2013-05-17 19:06:00,
2013-05-17 15:11:00,85.0,62.5,30.03,SE,135,3.5,3.5,47,0.00,CLR,,0.00,WeatherDisplay:10.37,2013-05-17 19:11:00,
2013-05-17 15:16:00,84.9,63.6,30.02,East,90,2.3,2.3,49,0.00,CLR,,0.00,WeatherDisplay:10.37,2013-05-17 19:16:00,
2013-05-17 15:21:00,85.0,64.8,30.02,NW,318,0.0,0.0,51,0.00,CLR,,0.00,WeatherDisplay:10.37,2013-05-17 19:21:00,
2013-05-17 15:26:00,85.5,64.2,30.02,SW,229,3.5,3.5,49,0.00,CLR,,0.00,WeatherDisplay:10.37,2013-05-17 19:26:00,
2013-05-17 15:31:00,85.0,64.3,30.02,ESE,119,3.5,3.5,50,0.00,CLR,,0.00,WeatherDisplay:10.37,2013-05-17 19:31:00,
2013-05-17 15:36:00,85.0,64.3,30.02,ESE,119,3.5,3.5,50,0.00,CLR,,0.00,WeatherDisplay:10.37,2013-05-17 19:36:00,
2013-05-17 15:41:00,85.0,64.3,30.02,ESE,119,3.5,3.5,50,0.00,CLR,,0.00,WeatherDisplay:10.37,2013-05-17 19:41:00,
2013-05-17 15:46:00,86.1,63.5,30.02,South,171,3.5,3.5,47,0.00,CLR,,0.00,WeatherDisplay:10.37,2013-05-17 19:46:00,
2013-05-17 15:51:00,86.2,63.6,30.02,ESE,109,3.5,3.5,47,0.00,CLR,,0.00,WeatherDisplay:10.37,2013-05-17 19:51:00,
2013-05-17 15:56:00,85.8,65.0,30.01,SSW,207,0.0,0.0,50,0.00,CLR,,0.00,WeatherDisplay:10.37,2013-05-17 19:56:00,
2013-05-17 16:01:00,85.8,65.0,30.01,SSW,202,5.8,5.8,50,0.00,CLR,,0.00,WeatherDisplay:10.37,2013-05-17 20:01:00,
2013-05-17 16:06:00,86.1,65.3,30.01,South,183,0.0,0.0,50,0.00,CLR,,0.00,WeatherDisplay:10.37,2013-05-17 20:06:00,
2013-05-17 16:11:00,86.1,65.3,30.01,South,172,0.0,0.0,50,0.00,CLR,,0.00,WeatherDisplay:10.37,2013-05-17 20:11:00,
2013-05-17 16:16:00,86.2,63.6,30.02,ESE,109,2.3,2.3,47,0.00,CLR,,0.00,WeatherDisplay:10.37,2013-05-17 20:16:00,
2013-05-17 16:21:00,85.6,64.2,30.01,ESE,111,0.0,1.8,49,0.00,CLR,,0.00,WeatherDisplay:10.37,2013-05-17 20:21:00,
2013-05-17 16:26:00,85.2,65.0,30.00,WSW,242,2.3,2.3,51,0.00,CLR,,0.00,WeatherDisplay:10.37,2013-05-17 20:26:00,
2013-05-17 16:31:00,85.6,64.2,30.01,ESE,111,0.0,1.8,49,0.00,CLR,,0.00,WeatherDisplay:10.37,2013-05-17 20:31:00,
2013-05-17 16:36:00,85.6,64.2,30.01,ESE,111,0.0,1.8,49,0.00,CLR,,0.00,WeatherDisplay:10.37,2013-05-17 20:36:00,
2013-05-17 16:41:00,85.6,64.2,30.01,ESE,111,0.0,1.8,49,0.00,CLR,,0.00,WeatherDisplay:10.37,2013-05-17 20:41:00,
2013-05-17 16:46:00,85.6,64.2,30.01,ESE,111,0.0,1.8,49,0.00,CLR,,0.00,WeatherDisplay:10.37,2013-05-17 20:46:00,
2013-05-17 16:51:00,83.2,66.4,30.00,SE,132,4.6,4.6,57,0.00,CLR,,0.00,WeatherDisplay:10.37,2013-05-17 20:51:00,
2013-05-17 16:56:00,83.1,66.8,30.00,South,175,1.2,0.0,58,0.00,CLR,,0.00,WeatherDisplay:10.37,2013-05-17 20:56:00,
2013-05-17 17:01:00,83.3,65.4,30.00,ESE,118,0.0,0.0,55,0.00,CLR,,0.00,WeatherDisplay:10.37,2013-05-17 21:01:00,
2013-05-17 17:06:00,83.3,65.4,30.00,ESE,118,0.0,0.0,55,0.00,CLR,,0.00,WeatherDisplay:10.37,2013-05-17 21:06:00,
2013-05-17 17:11:00,83.0,66.7,30.00,SW,233,0.0,0.0,58,0.00,CLR,,0.00,WeatherDisplay:10.37,2013-05-17 21:11:00,
2013-05-17 17:16:00,82.9,66.6,30.00,SW,232,0.0,0.0,58,0.00,CLR,,0.00,WeatherDisplay:10.37,2013-05-17 21:16:00,
2013-05-17 17:21:00,83.3,65.4,30.00,ESE,118,0.0,0.0,55,0.00,CLR,,0.00,WeatherDisplay:10.37,2013-05-17 21:21:00,
2013-05-17 17:26:00,83.3,65.4,30.00,ESE,118,0.0,0.0,55,0.00,CLR,,0.00,WeatherDisplay:10.37,2013-05-17 21:26:00,
2013-05-17 17:31:00,83.3,65.4,30.00,ESE,118,0.0,0.0,55,0.00,CLR,,0.00,WeatherDisplay:10.37,2013-05-17 21:31:00,
2013-05-17 17:36:00,82.5,66.7,30.00,SSE,167,4.6,4.6,59,0.00,CLR,,0.00,WeatherDisplay:10.37,2013-05-17 21:36:00,
2013-05-17 17:41:00,82.4,66.6,30.00,WSW,248,6.9,6.9,59,0.00,CLR,,0.00,WeatherDisplay:10.37,2013-05-17 21:41:00,
2013-05-17 17:46:00,82.4,67.6,30.00,WSW,248,6.9,6.9,61,0.00,CLR,,0.00,WeatherDisplay:10.37,2013-05-17 21:46:00,
2013-05-17 17:51:00,82.5,66.2,30.00,West,260,3.0,3.0,58,0.00,CLR,,0.00,WeatherDisplay:10.37,2013-05-17 21:51:00,
2013-05-17 17:56:00,82.6,66.8,30.00,South,186,0.0,0.0,59,0.00,CLR,,0.00,WeatherDisplay:10.37,2013-05-17 21:56:00,
2013-05-17 18:01:00,82.7,66.4,30.00,SSW,213,4.6,4.6,58,0.00,CLR,,0.00,WeatherDisplay:10.37,2013-05-17 22:01:00,
2013-05-17 18:06:00,82.5,66.2,30.00,SW,217,3.5,0.0,58,0.00,CLR,,0.00,WeatherDisplay:10.37,2013-05-17 22:06:00,
2013-05-17 18:11:00,82.3,66.0,30.00,WSW,254,3.0,3.0,58,0.00,CLR,,0.00,WeatherDisplay:10.37,2013-05-17 22:11:00,
2013-05-17 18:16:00,82.2,64.9,30.00,WSW,252,4.6,4.6,56,0.00,CLR,,0.00,WeatherDisplay:10.37,2013-05-17 22:16:00,
2013-05-17 18:21:00,82.6,66.8,30.00,South,186,0.0,0.0,59,0.00,CLR,,0.00,WeatherDisplay:10.37,2013-05-17 22:21:00,
2013-05-17 18:26:00,82.0,65.3,30.00,WSW,250,4.6,4.6,57,0.00,CLR,,0.00,WeatherDisplay:10.37,2013-05-17 22:26:00,
2013-05-17 18:31:00,82.6,66.8,30.00,South,186,0.0,0.0,59,0.00,CLR,,0.00,WeatherDisplay:10.37,2013-05-17 22:31:00,
2013-05-17 18:36:00,82.6,66.8,30.00,South,186,0.0,0.0,59,0.00,CLR,,0.00,WeatherDisplay:10.37,2013-05-17 22:36:00,
2013-05-17 18:41:00,81.5,64.8,30.00,WSW,241,6.9,6.9,57,0.00,CLR,,0.00,WeatherDisplay:10.37,2013-05-17 22:41:00,
2013-05-17 18:46:00,81.4,65.7,30.00,WSW,238,5.8,5.8,59,0.00,CLR,,0.00,WeatherDisplay:10.37,2013-05-17 22:46:00,
2013-05-17 18:51:00,81.2,65.5,30.00,South,188,4.6,4.6,59,0.00,CLR,,0.00,WeatherDisplay:10.37,2013-05-17 22:51:00,
2013-05-17 18:56:00,81.0,64.3,30.00,SSE,165,3.5,3.5,57,0.00,CLR,,0.00,WeatherDisplay:10.37,2013-05-17 22:56:00,
2013-05-17 19:01:00,80.8,64.6,30.00,West,281,2.3,0.0,58,0.00,CLR,,0.00,WeatherDisplay:10.37,2013-05-17 23:01:00,
2013-05-17 19:06:00,82.6,66.8,30.00,South,186,0.0,0.0,59,0.00,CLR,,0.00,WeatherDisplay:10.37,2013-05-17 23:06:00,
2013-05-17 19:11:00,80.5,63.9,30.00,SW,225,0.0,0.0,57,0.00,CLR,,0.00,WeatherDisplay:10.37,2013-05-17 23:11:00,
2013-05-17 19:16:00,82.6,66.8,30.00,South,186,0.0,0.0,59,0.00,CLR,,0.00,WeatherDisplay:10.37,2013-05-17 23:16:00,
2013-05-17 19:21:00,80.2,63.6,30.00,SW,225,0.0,0.0,57,0.00,CLR,,0.00,WeatherDisplay:10.37,2013-05-17 23:21:00,
2013-05-17 19:26:00,82.6,66.8,30.00,South,186,0.0,0.0,59,0.00,CLR,,0.00,WeatherDisplay:10.37,2013-05-17 23:26:00,
2013-05-17 19:31:00,82.6,66.8,30.00,South,186,0.0,0.0,59,0.00,CLR,,0.00,WeatherDisplay:10.37,2013-05-17 23:31:00,
2013-05-17 19:36:00,80.0,64.4,30.01,SW,225,0.0,0.0,59,0.00,CLR,,0.00,WeatherDisplay:10.37,2013-05-17 23:36:00,
2013-05-17 19:41:00,79.7,63.6,30.01,SW,225,0.0,0.0,58,0.00,CLR,,0.00,WeatherDisplay:10.37,2013-05-17 23:41:00,
2013-05-17 19:46:00,79.4,63.8,30.01,SW,225,0.0,0.0,59,0.00,CLR,,0.00,WeatherDisplay:10.37,2013-05-17 23:46:00,
2013-05-17 19:51:00,79.1,64.0,30.01,SW,225,0.0,0.0,60,0.00,CLR,,0.00,WeatherDisplay:10.37,2013-05-17 23:51:00,
2013-05-17 19:56:00,78.7,64.1,30.01,SW,225,0.0,0.0,61,0.00,CLR,,0.00,WeatherDisplay:10.37,2013-05-17 23:56:00,
2013-05-17 20:01:00,78.4,64.3,30.02,SW,225,0.0,0.0,62,0.00,CLR,,0.00,WeatherDisplay:10.37,2013-05-18 00:01:00,
2013-05-17 20:06:00,78.3,64.2,30.02,SW,225,0.0,0.0,62,0.00,CLR,,0.00,WeatherDisplay:10.37,2013-05-18 00:06:00,
2013-05-17 20:11:00,77.5,63.9,30.01,SW,225,0.0,0.0,63,0.00,CLR,,0.00,WeatherDisplay:10.37,2013-05-18 00:11:00,
2013-05-17 20:16:00,78.3,64.2,30.02,SW,225,0.0,0.0,62,0.00,CLR,,0.00,WeatherDisplay:10.37,2013-05-18 00:16:00,
2013-05-17 20:21:00,78.3,64.2,30.02,SW,225,0.0,0.0,62,0.00,CLR,,0.00,WeatherDisplay:10.37,2013-05-18 00:21:00,
2013-05-17 20:26:00,78.3,64.2,30.02,SW,225,0.0,0.0,62,0.00,CLR,,0.00,WeatherDisplay:10.37,2013-05-18 00:26:00,
2013-05-17 20:31:00,75.5,63.8,30.02,SW,225,0.0,0.0,67,0.00,CLR,,0.00,WeatherDisplay:10.37,2013-05-18 00:31:00,
2013-05-17 20:36:00,75.1,63.4,30.02,SW,225,0.0,0.0,67,0.00,CLR,,0.00,WeatherDisplay:10.37,2013-05-18 00:36:00,
2013-05-17 20:41:00,78.3,64.2,30.02,SW,225,0.0,0.0,62,0.00,CLR,,0.00,WeatherDisplay:10.37,2013-05-18 00:41:00,
2013-05-17 20:46:00,74.6,62.9,30.02,SW,225,0.0,0.0,67,0.00,CLR,,0.00,WeatherDisplay:10.37,2013-05-18 00:46:00,
2013-05-17 20:51:00,74.6,62.9,30.02,SW,225,0.0,0.0,67,0.00,CLR,,0.00,WeatherDisplay:10.37,2013-05-18 00:51:00,
2013-05-17 20:56:00,73.6,62.4,30.03,SW,225,0.0,0.0,68,0.00,CLR,,0.00,WeatherDisplay:10.37,2013-05-18 00:56:00,
2013-05-17 21:01:00,73.4,62.6,30.03,SW,225,0.0,0.0,69,0.00,CLR,,0.00,WeatherDisplay:10.37,2013-05-18 01:01:00,
2013-05-17 21:06:00,73.2,62.4,30.03,SW,225,0.0,0.0,69,0.00,CLR,,0.00,WeatherDisplay:10.37,2013-05-18 01:06:00,
2013-05-17 21:11:00,73.0,62.6,30.03,SW,225,0.0,0.0,70,0.00,CLR,,0.00,WeatherDisplay:10.37,2013-05-18 01:11:00,
2013-05-17 21:16:00,73.4,62.6,30.03,SW,225,0.0,0.0,69,0.00,CLR,,0.00,WeatherDisplay:10.37,2013-05-18 01:16:00,
2013-05-17 21:21:00,72.6,62.3,30.03,SW,225,0.0,0.0,70,0.00,CLR,,0.00,WeatherDisplay:10.37,2013-05-18 01:21:00,
2013-05-17 21:26:00,72.4,62.5,30.03,SW,225,0.0,0.0,71,0.00,CLR,,0.00,WeatherDisplay:10.37,2013-05-18 01:26:00,
2013-05-17 21:31:00,72.2,62.3,30.03,SW,225,0.0,0.0,71,0.00,CLR,,0.00,WeatherDisplay:10.37,2013-05-18 01:31:00,
2013-05-17 21:36:00,72.1,62.2,30.04,SW,225,0.0,0.0,71,0.00,CLR,,0.00,WeatherDisplay:10.37,2013-05-18 01:36:00,
2013-05-17 21:41:00,72.0,62.1,30.04,SW,225,0.0,0.0,71,0.00,CLR,,0.00,WeatherDisplay:10.37,2013-05-18 01:41:00,
2013-05-17 21:46:00,71.8,61.9,30.04,SW,225,0.0,0.0,71,0.00,CLR,,0.00,WeatherDisplay:10.37,2013-05-18 01:46:00,
2013-05-17 21:51:00,72.0,62.1,30.04,SW,225,0.0,0.0,71,0.00,CLR,,0.00,WeatherDisplay:10.37,2013-05-18 01:51:00,
2013-05-17 21:56:00,71.6,62.1,30.05,SW,225,0.0,0.0,72,0.00,CLR,,0.00,WeatherDisplay:10.37,2013-05-18 01:56:00,
2013-05-17 22:01:00,71.5,62.4,30.05,SW,225,0.0,0.0,73,0.00,CLR,,0.00,WeatherDisplay:10.37,2013-05-18 02:01:00,
2013-05-17 22:06:00,71.3,62.2,30.05,SW,225,0.0,0.0,73,0.00,CLR,,0.00,WeatherDisplay:10.37,2013-05-18 02:06:00,
2013-05-17 22:11:00,72.0,62.1,30.04,SW,225,0.0,0.0,71,0.00,CLR,,0.00,WeatherDisplay:10.37,2013-05-18 02:11:00,
2013-05-17 22:16:00,71.0,62.3,30.05,SW,225,0.0,0.0,74,0.00,CLR,,0.00,WeatherDisplay:10.37,2013-05-18 02:16:00,
2013-05-17 22:21:00,72.0,62.1,30.04,SW,225,0.0,0.0,71,0.00,CLR,,0.00,WeatherDisplay:10.37,2013-05-18 02:21:00,
2013-05-17 22:26:00,70.6,61.9,30.05,SW,225,0.0,0.0,74,0.00,CLR,,0.00,WeatherDisplay:10.37,2013-05-18 02:26:00,
2013-05-17 22:31:00,72.0,62.1,30.04,SW,225,0.0,0.0,71,0.00,CLR,,0.00,WeatherDisplay:10.37,2013-05-18 02:31:00,
2013-05-17 22:36:00,70.2,61.5,30.05,SW,225,0.0,0.0,74,0.00,CLR,,0.00,WeatherDisplay:10.37,2013-05-18 02:36:00,
2013-05-17 22:41:00,72.0,62.1,30.04,SW,225,0.0,0.0,71,0.00,CLR,,0.00,WeatherDisplay:10.37,2013-05-18 02:41:00,
2013-05-17 22:46:00,69.9,61.6,30.06,SW,225,0.0,0.0,75,0.00,CLR,,0.00,WeatherDisplay:10.37,2013-05-18 02:46:00,
2013-05-17 22:51:00,72.0,62.1,30.04,SW,225,0.0,0.0,71,0.00,CLR,,0.00,WeatherDisplay:10.37,2013-05-18 02:51:00,
2013-05-17 22:56:00,72.0,62.1,30.04,SW,225,0.0,0.0,71,0.00,CLR,,0.00,WeatherDisplay:10.37,2013-05-18 02:56:00,
2013-05-17 23:01:00,69.5,61.6,30.06,SW,225,0.0,0.0,76,0.00,CLR,,0.00,WeatherDisplay:10.37,2013-05-18 03:01:00,
2013-05-17 23:06:00,72.0,62.1,30.04,SW,225,0.0,0.0,71,0.00,CLR,,0.00,WeatherDisplay:10.37,2013-05-18 03:06:00,
2013-05-17 23:11:00,69.4,61.5,30.06,SW,225,0.0,0.0,76,0.00,CLR,,0.00,WeatherDisplay:10.37,2013-05-18 03:11:00,
2013-05-17 23:16:00,72.0,62.1,30.04,SW,225,0.0,0.0,71,0.00,CLR,,0.00,WeatherDisplay:10.37,2013-05-18 03:16:00,
2013-05-17 23:21:00,69.2,61.7,30.06,SW,225,0.0,0.0,77,0.00,CLR,,0.00,WeatherDisplay:10.37,2013-05-18 03:21:00,
2013-05-17 23:26:00,72.0,62.1,30.04,SW,225,0.0,0.0,71,0.00,CLR,,0.00,WeatherDisplay:10.37,2013-05-18 03:26:00,
2013-05-17 23:31:00,69.1,61.6,30.06,SW,225,0.0,0.0,77,0.00,CLR,,0.00,WeatherDisplay:10.37,2013-05-18 03:31:00,
2013-05-17 23:36:00,69.0,61.5,30.06,SW,225,0.0,0.0,77,0.00,CLR,,0.00,WeatherDisplay:10.37,2013-05-18 03:36:00,
2013-05-17 23:41:00,72.0,62.1,30.04,SW,225,0.0,0.0,71,0.00,CLR,,0.00,WeatherDisplay:10.37,2013-05-18 03:41:00,
2013-05-17 23:46:00,72.0,62.1,30.04,SW,225,0.0,0.0,71,0.00,CLR,,0.00,WeatherDisplay:10.37,2013-05-18 03:46:00,
2013-05-17 23:51:00,68.6,61.5,30.06,SW,225,0.0,0.0,78,0.00,CLR,,0.00,WeatherDisplay:10.37,2013-05-18 03:51:00,
2013-05-17 23:56:00,68.6,61.8,30.06,SW,225,0.0,0.0,79,0.00,CLR,,0.00,WeatherDisplay:10.37,2013-05-18 03:56:00,